Find Starlink 5014

NORAD ID: 53926 Int'l Des: 2022-119 Owner: SPXS Country: US Constellation: starlink operational
LEOCIRCULAR

Live Position

Loading 3D Globe...

About Starlink 5014

Description loading...

Upcoming Passes

Passes for default location (London). Set your location on the main map for personalized predictions.

Altitude History

Loading altitude history...

Two-Line Element Set

1 53926U 22119AS 26106.25002315 .00007352 00000-0 31941-3 0 9991
2 53926 53.2163 139.3313 0002326 105.1380 205.1846 15.23315416 5856
Epoch: Apr 16, 2026 • Age: 6 hours

Current Status

Altitude 514.4 km
Velocity 7.61 km/s
Sub-Earth Point -49.18°S, 50.96°E
Launch Date Sep 24, 2022
Age 3.5 years
Type internet

Technical Details

Classification Payload
Mass 305.00 kg
Dry Mass 290.00 kg
Total Mass 305.00 kg
Length 0.20 m
Diameter 2.80 m
Span 9.00 m
Shape Box + pan
Manufacturer SPXS
Bus Type Starlink
Phase Status In Orbit
Owner/State SPXS/US

Most Searched